FW9372 Weather Reports


Display with metric or nautical units.
time (UTC)temp
F
wind
direction
speed
MPH
gust
MPH
rain 1hr
in
rain 24hr
in
rain mn
in
humidity
%
barometer
mb
20260509100056 54 0 0.0 0.0 0.00 0.00 0.00 89 1005.8
20260509094601 54 0 0.0 0.0 0.00 0.00 0.00 88 1005.5
20260509093059 55 0 0.0 0.0 0.00 0.00 0.00 86 1005.5
20260509091558 55 0 0.0 0.0 0.00 0.00 0.00 85 1006.0
20260509084604 56 0 0.0 0.0 0.00 0.00 0.00 82 1006.0
20260509083107 57 0 0.0 0.0 0.00 0.00 0.00 81 1006.2
20260509081556 58 0 0.0 0.0 0.00 0.00 0.00 79 1006.2
20260509080059 59 0 0.0 0.0 0.00 0.00 0.00 76 1006.5
20260509074612 58 0 0.0 0.0 0.00 0.00 0.00 78 1006.4
20260509073107 55 0 0.0 0.0 0.00 0.00 0.00 85 1006.0
20260509071558 54 0 0.0 0.0 0.00 0.00 0.00 88 1006.0
20260509070059 53 0 0.0 0.0 0.00 0.00 0.00 88 1006.2
20260509064600 54 0 0.0 0.0 0.00 0.00 0.00 87 1006.4
20260509063104 54 0 0.0 0.0 0.00 0.00 0.00 87 1006.6
20260509061558 54 0 0.0 0.0 0.00 0.00 0.00 87 1006.6
20260509060118 53 0 0.0 0.0 0.00 0.00 0.00 86 1006.8
20260509054555 53 0 0.0 0.0 0.00 0.00 0.00 86 1007.0
20260509053116 53 0 0.0 0.0 0.00 0.00 0.00 86 1006.9
20260509051606 53 0 0.0 0.0 0.00 0.00 0.00 85 1006.9
20260509044607 54 0 0.0 0.0 0.00 0.00 0.00 85 1007.0
20260509043100 54 0 0.0 0.0 0.00 0.00 0.00 85 1007.1
20260509041557 54 0 0.0 0.0 0.00 0.00 0.00 85 1007.1
20260509040109 53 0 0.0 0.0 0.00 0.00 0.00 84 1007.2
20260509034603 53 0 0.0 0.0 0.00 0.00 0.00 83 1007.3
20260509033126 53 0 0.0 0.0 0.00 0.00 0.00 81 1007.3
20260509031558 54 0 0.0 0.0 0.00 0.00 0.00 79 1007.4
20260509030058 55 0 0.0 0.0 0.00 0.00 0.00 78 1007.5
20260509024605 56 0 0.0 0.0 0.00 0.00 0.00 76 1007.5
20260509023058 57 0 0.0 0.0 0.00 0.00 0.00 76 1007.7
20260509021559 58 0 0.0 0.0 0.00 0.00 0.00 73 1007.6
20260509020111 58 0 0.0 0.0 0.00 0.00 0.00 71 1007.8
20260509014557 59 0 0.0 0.0 0.00 0.00 0.00 71 1007.6
20260509013103 59 0 0.0 0.0 0.00 0.00 0.00 69 1007.4
20260509011602 59 0 0.0 0.0 0.00 0.00 0.00 68 1007.3
20260509010101 60 0 0.0 0.0 0.00 0.00 0.00 67 1007.6
20260509004558 61 0 0.0 0.0 0.00 0.00 0.00 65 1007.6
20260509003102 63 0 0.0 0.0 0.00 0.00 0.00 63 1007.7
20260509001556 66 0 0.0 0.0 0.00 0.00 0.00 57 1007.6
20260509000056 69 0 0.0 0.0 0.00 0.00 0.00 50 1007.9
20260508234602 71 0 0.0 0.0 0.00 0.00 0.00 46 1007.8
20260508233108 72 0 0.0 1.0 0.00 0.00 0.00 45 1007.9
20260508231611 71 0 0.0 1.0 0.00 0.00 0.00 45 1008.0
20260508230104 71 0 0.0 8.0 0.00 0.00 0.00 45 1008.0
20260508224556 72 0 0.0 5.0 0.00 0.00 0.00 45 1007.9
20260508223057 72 0 0.0 4.0 0.00 0.00 0.00 45 1008.0
20260508221557 72 174 0.0 11.0 0.00 0.00 0.00 45 1008.1
20260508220057 72 218 3.0 13.0 0.00 0.00 0.00 42 1008.1
20260508214559 72 222 1.0 11.0 0.00 0.00 0.00 44 1008.1
20260508213100 72 257 2.0 10.0 0.00 0.00 0.00 44 1008.1
20260508211600 72 0 3.0 12.0 0.00 0.00 0.00 44 1008.1
20260508210108 72 165 1.0 14.0 0.00 0.00 0.00 43 1008.3
20260508204607 72 0 0.0 12.0 0.00 0.00 0.00 44 1008.5
20260508203100 72 250 3.0 15.0 0.00 0.00 0.00 44 1008.8
20260508201600 72 189 2.0 10.0 0.00 0.00 0.00 42 1009.0
20260508200057 72 245 1.0 7.0 0.00 0.00 0.00 44 1009.5
20260508194608 72 218 2.0 14.0 0.00 0.00 0.00 44 1009.8
20260508193119 72 226 3.0 11.0 0.00 0.00 0.00 44 1009.9
20260508191607 71 0 1.0 13.0 0.00 0.00 0.00 46 1010.2
20260508190113 71 221 0.0 11.0 0.00 0.00 0.00 45 1010.3
20260508184557 71 0 1.0 15.0 0.00 0.00 0.00 45 1010.5
20260508183100 70 157 0.0 11.0 0.00 0.00 0.00 46 1010.6
20260508181604 70 0 0.0 15.0 0.00 0.00 0.00 46 1010.9
20260508180105 70 245 2.0 11.0 0.00 0.00 0.00 44 1011.0
20260508174555 69 0 3.0 11.0 0.00 0.00 0.00 46 1011.0
20260508173057 69 0 0.0 13.0 0.00 0.00 0.00 49 1010.9
20260508171557 69 0 2.0 10.0 0.00 0.00 0.00 46 1011.4
20260508170101 69 172 0.0 6.0 0.00 0.00 0.00 48 1011.7
20260508164557 68 236 1.0 11.0 0.00 0.00 0.00 47 1012.0
20260508163106 68 0 0.0 9.0 0.00 0.00 0.00 48 1012.4
20260508161559 67 214 2.0 10.0 0.00 0.00 0.00 49 1012.5
20260508160057 67 0 0.0 9.0 0.00 0.00 0.00 49 1013.0
20260508154556 67 193 0.0 8.0 0.00 0.00 0.00 50 1013.0
20260508153108 66 246 1.0 8.0 0.00 0.00 0.00 50 1013.0
20260508151557 65 270 0.0 8.0 0.00 0.00 0.00 52 1013.4
20260508150059 64 0 0.0 7.0 0.00 0.00 0.00 54 1013.6
20260508144555 64 0 0.0 2.0 0.00 0.00 0.00 54 1013.7
20260508143116 62 0 0.0 6.0 0.00 0.00 0.00 60 1013.6
20260508141605 61 0 0.0 4.0 0.00 0.00 0.00 58 1013.8
20260508140118 59 215 0.0 2.0 0.00 0.00 0.00 62 1013.7
20260508134556 58 0 0.0 0.0 0.00 0.00 0.00 66 1013.7
20260508133103 55 0 0.0 1.0 0.00 0.00 0.00 73 1013.9
20260508131558 50 0 0.0 0.0 0.00 0.00 0.00 95 1013.7
20260508130058 47 0 0.0 0.0 0.00 0.00 0.00 98 1013.8
20260508124559 44 0 0.0 0.0 0.00 0.00 0.00 98 1013.6
20260508123055 42 0 0.0 0.0 0.00 0.00 0.00 98 1013.6
20260508121602 41 0 0.0 0.0 0.00 0.00 0.00 98 1013.7
20260508120113 39 0 0.0 0.0 0.00 0.00 0.00 97 1013.4
20260508114610 38 0 0.0 0.0 0.00 0.00 0.00 97 1013.5
20260508113107 36 0 0.0 0.0 0.00 0.00 0.00 97 1013.3
20260508111605 35 0 0.0 0.0 0.00 0.00 0.00 96 1013.3
20260508110106 35 0 0.0 0.0 0.00 0.00 0.00 96 1013.4
20260508104600 35 0 0.0 0.0 0.00 0.00 0.00 96 1013.2
20260508103100 35 0 0.0 0.0 0.00 0.00 0.00 96 1013.3
20260508101603 35 0 0.0 0.0 0.00 0.00 0.00 96 1013.2